When you browse on this site, cookies collect data to enhance your experience and personalize the content and advertising you see.
Visit our Privacy Policy to learn more. By continuing to use the site, you agree to this use of cookies and data.
  • în România
  • Lista ţărilor
  • Pe 7 zile
  • Temperatura apei
  • Hartă satelitară
  • Meteo pe hartă
  • Widget-uri
  • user-avatar
    Intrare

    Meteo pe oră la Kaprun

    Astăzi, 12 Decembrie, Miercuri

    Timp Temperatura Precipitaţii Vânt Presiune Umiditate
    00:00 -15°C° 0.1 mm 2 m/s 592 mmHg 90%
    01:00 -15°C° 0 mm 2 m/s 592 mmHg 88%
    02:00 -15°C° 0.1 mm 2 m/s 592 mmHg 88%
    03:00 -15°C° 0.1 mm 2 m/s 592 mmHg 88%
    04:00 -15°C° 0.1 mm 2 m/s 592 mmHg 87%
    05:00 -16°C° 0.1 mm 2 m/s 592 mmHg 87%
    06:00 -16°C° 0.1 mm 2 m/s 592 mmHg 87%
    07:00 -15°C° 0 mm 2 m/s 592 mmHg 87%
    08:00 -14°C° 0.1 mm 2 m/s 592 mmHg 86%
    09:00 -13°C° 0.1 mm 2 m/s 593 mmHg 84%
    10:00 -12°C° 0.1 mm 2 m/s 593 mmHg 83%
    11:00 -10°C° 0.1 mm 2 m/s 593 mmHg 80%
    12:00 -9°C° 0.1 mm 1 m/s 594 mmHg 77%
    13:00 -8°C° 0.1 mm 1 m/s 594 mmHg 73%
    14:00 -9°C° 0 mm 1 m/s 593 mmHg 78%
    15:00 -10°C° 0 mm 1 m/s 592 mmHg 83%
    16:00 -11°C° 0 mm 1 m/s 592 mmHg 87%
    17:00 -12°C° 0 mm 1 m/s 591 mmHg 88%
    18:00 -13°C° 0 mm 1 m/s 591 mmHg 88%
    19:00 -14°C° 0 mm 1 m/s 591 mmHg 89%
    20:00 -14°C° 0 mm 1 m/s 591 mmHg 87%
    21:00 -14°C° 0 mm 1 m/s 591 mmHg 86%
    22:00 -15°C° 0 mm 1 m/s 591 mmHg 85%
    23:00 -15°C° 0 mm 1 m/s 590 mmHg 84%

    Mâine, 13 Decembrie, Joi

    Timp Temperatura Precipitaţii Vânt Presiune Umiditate
    00:00 -15°C° 0 mm 1 m/s 590 mmHg 84%
    01:00 -15°C° 0 mm 1 m/s 590 mmHg 84%
    02:00 -15°C° 0 mm 1 m/s 590 mmHg 84%
    03:00 -15°C° 0 mm 1 m/s 589 mmHg 85%
    04:00 -16°C° 0 mm 1 m/s 589 mmHg 85%
    05:00 -16°C° 0 mm 1 m/s 589 mmHg 85%
    06:00 -16°C° 0 mm 1 m/s 589 mmHg 85%
    07:00 -16°C° 0 mm 1 m/s 588 mmHg 85%
    08:00 -15°C° 0 mm 1 m/s 589 mmHg 84%
    09:00 -13°C° 0 mm 1 m/s 589 mmHg 82%
    10:00 -12°C° 0 mm 1 m/s 590 mmHg 80%
    11:00 -13°C° 0 mm 2 m/s 590 mmHg 79%
    12:00 -12°C° 0 mm 2 m/s 590 mmHg 78%
    13:00 -9°C° 0 mm 2 m/s 591 mmHg 77%
    14:00 -10°C° 0 mm 2 m/s 590 mmHg 81%
    15:00 -10°C° 0 mm 1 m/s 589 mmHg 85%
    16:00 -11°C° 0 mm 1 m/s 589 mmHg 89%
    17:00 -12°C° 0 mm 1 m/s 589 mmHg 89%
    18:00 -13°C° 0 mm 1 m/s 589 mmHg 89%
    19:00 -14°C° 0 mm 1 m/s 588 mmHg 90%
    20:00 -14°C° 0 mm 1 m/s 588 mmHg 89%
    21:00 -14°C° 0 mm 1 m/s 588 mmHg 88%
    22:00 -14°C° 0 mm 1 m/s 588 mmHg 87%
    23:00 -14°C° 0 mm 1 m/s 588 mmHg 87%

    Poimâine, 14 Decembrie, Vineri

    Timp Temperatura Precipitaţii Vânt Presiune Umiditate
    00:00 -14°C° 0 mm 1 m/s 588 mmHg 87%
    01:00 -14°C° 0 mm 1 m/s 588 mmHg 86%
    02:00 -15°C° 0 mm 1 m/s 588 mmHg 86%
    03:00 -15°C° 0 mm 1 m/s 588 mmHg 86%
    04:00 -15°C° 0 mm 1 m/s 588 mmHg 86%
    05:00 -15°C° 0 mm 1 m/s 588 mmHg 85%
    06:00 -15°C° 0 mm 1 m/s 588 mmHg 84%
    07:00 -15°C° 0 mm 1 m/s 588 mmHg 84%
    08:00 -13°C° 0 mm 1 m/s 589 mmHg 82%
    09:00 -12°C° 0 mm 1 m/s 590 mmHg 80%
    10:00 -10°C° 0 mm 1 m/s 591 mmHg 78%
    11:00 -9°C° 0 mm 1 m/s 591 mmHg 75%
    12:00 -8°C° 0 mm 1 m/s 591 mmHg 73%
    13:00 -7°C° 0 mm 1 m/s 591 mmHg 70%
    14:00 -9°C° 0 mm 1 m/s 591 mmHg 76%
    15:00 -10°C° 0 mm 1 m/s 590 mmHg 82%
    16:00 -11°C° 0 mm 1 m/s 589 mmHg 88%
    17:00 -12°C° 0 mm 1 m/s 589 mmHg 88%
    18:00 -13°C° 0 mm 1 m/s 589 mmHg 89%
    19:00 -14°C° 0 mm 1 m/s 589 mmHg 89%
    20:00 -14°C° 0 mm 1 m/s 590 mmHg 87%
    21:00 -14°C° 0 mm 1 m/s 590 mmHg 85%
    22:00 -14°C° 0 mm 1 m/s 590 mmHg 83%
    23:00 -14°C° 0 mm 1 m/s 590 mmHg 82%

    15 Decembrie, Sâmbătă

    Timp Temperatura Precipitaţii Vânt Presiune Umiditate
    00:00 -17°C° 0 mm 2 m/s 590 mmHg 81%
    01:00 -17°C° 0 mm 2 m/s 590 mmHg 81%
    02:00 -17°C° 0 mm 2 m/s 590 mmHg 82%
    03:00 -17°C° 0 mm 2 m/s 590 mmHg 83%
    04:00 -17°C° 0 mm 2 m/s 590 mmHg 85%
    05:00 -17°C° 0 mm 2 m/s 590 mmHg 86%
    06:00 -17°C° 0 mm 2 m/s 591 mmHg 87%
    07:00 -17°C° 0 mm 2 m/s 591 mmHg 88%
    08:00 -16°C° 0 mm 2 m/s 591 mmHg 87%
    09:00 -15°C° 0 mm 2 m/s 592 mmHg 86%
    10:00 -14°C° 0 mm 2 m/s 593 mmHg 85%
    11:00 -13°C° 0 mm 2 m/s 593 mmHg 84%
    12:00 -12°C° 0 mm 2 m/s 593 mmHg 83%
    13:00 -10°C° 0 mm 2 m/s 593 mmHg 81%
    14:00 -12°C° 0 mm 2 m/s 593 mmHg 84%
    15:00 -13°C° 0 mm 2 m/s 593 mmHg 86%
    16:00 -13°C° 0 mm 2 m/s 592 mmHg 89%
    17:00 -14°C° 0 mm 2 m/s 592 mmHg 89%
    18:00 -15°C° 0 mm 2 m/s 592 mmHg 89%
    19:00 -16°C° 0 mm 2 m/s 592 mmHg 90%
    20:00 -17°C° 0 mm 2 m/s 592 mmHg 87%
    21:00 -17°C° 0 mm 2 m/s 592 mmHg 84%
    22:00 -17°C° 0 mm 2 m/s 591 mmHg 81%
    23:00 -17°C° 0 mm 2 m/s 592 mmHg 77%

    16 Decembrie, Duminică

    Timp Temperatura Precipitaţii Vânt Presiune Umiditate
    00:00 -14°C° 0 mm 1 m/s 592 mmHg 74%
    01:00 -14°C° 0 mm 1 m/s 592 mmHg 70%
    02:00 -14°C° 0 mm 1 m/s 591 mmHg 67%
    03:00 -14°C° 0 mm 1 m/s 591 mmHg 65%
    04:00 -13°C° 0 mm 1 m/s 591 mmHg 62%
    05:00 -13°C° 0 mm 1 m/s 591 mmHg 60%
    06:00 -13°C° 0 mm 1 m/s 591 mmHg 57%
    07:00 -13°C° 0 mm 1 m/s 591 mmHg 54%
    08:00 -11°C° 0 mm 1 m/s 592 mmHg 55%
    09:00 -9°C° 0 mm 1 m/s 593 mmHg 56%
    10:00 -7°C° 0 mm 1 m/s 594 mmHg 56%
    11:00 -4°C° 0 mm 1 m/s 594 mmHg 57%
    12:00 -5°C° 0 mm 2 m/s 594 mmHg 59%
    13:00 -3°C° 0 mm 2 m/s 594 mmHg 60%
    14:00 -4°C° 0.1 mm 2 m/s 594 mmHg 60%
    15:00 -3°C° 0.1 mm 1 m/s 593 mmHg 61%
    16:00 -4°C° 0.1 mm 1 m/s 593 mmHg 61%
    17:00 -4°C° 0 mm 1 m/s 593 mmHg 59%
    18:00 -7°C° 0 mm 2 m/s 593 mmHg 57%
    19:00 -8°C° 0 mm 2 m/s 592 mmHg 55%
    20:00 -8°C° 0 mm 2 m/s 592 mmHg 57%
    21:00 -8°C° 0 mm 2 m/s 592 mmHg 59%
    22:00 -8°C° 0 mm 2 m/s 592 mmHg 60%
    23:00 -8°C° 0 mm 2 m/s 592 mmHg 64%

    17 Decembrie, Luni

    Timp Temperatura Precipitaţii Vânt Presiune Umiditate
    00:00 -8°C° 0 mm 2 m/s 592 mmHg 67%
    01:00 -8°C° 0 mm 2 m/s 592 mmHg 70%
    02:00 -7°C° 0.1 mm 1 m/s 592 mmHg 75%
    03:00 -7°C° 0.1 mm 1 m/s 592 mmHg 79%
    04:00 -7°C° 0.1 mm 1 m/s 592 mmHg 84%
    05:00 -7°C° 0.1 mm 1 m/s 592 mmHg 85%
    06:00 -7°C° 0.1 mm 1 m/s 592 mmHg 86%
    07:00 -7°C° 0.1 mm 1 m/s 592 mmHg 87%
    08:00 -6°C° 0.2 mm 1 m/s 593 mmHg 88%
    09:00 -6°C° 0.2 mm 1 m/s 593 mmHg 88%
    10:00 -4°C° 0.2 mm 1 m/s 594 mmHg 89%
    11:00 -4°C° 0.2 mm 1 m/s 594 mmHg 90%
    12:00 -3°C° 0.2 mm 1 m/s 594 mmHg 90%
    13:00 -2°C° 0.2 mm 1 m/s 594 mmHg 91%
    14:00 -3°C° 0.3 mm 1 m/s 594 mmHg 92%
    15:00 -3°C° 0.3 mm 1 m/s 594 mmHg 94%
    16:00 -4°C° 0.3 mm 1 m/s 594 mmHg 96%
    17:00 -4°C° 0.4 mm 1 m/s 594 mmHg 96%
    18:00 -4°C° 0.4 mm 1 m/s 595 mmHg 96%
    19:00 -6°C° 0.4 mm 1 m/s 595 mmHg 96%
    20:00 -6°C° 0.3 mm 1 m/s 595 mmHg 95%
    21:00 -7°C° 0.3 mm 2 m/s 595 mmHg 95%
    22:00 -7°C° 0.3 mm 2 m/s 596 mmHg 95%
    23:00 -7°C° 0.2 mm 2 m/s 596 mmHg 95%
    Arată mai mult